Year,Month,Day,Hour,Minute,Value (Times are PST for temperature in C)
2014,04,12,00,00,5.30
2014,04,12,00,01,5.30
2014,04,12,00,02,5.30
2014,04,12,00,03,5.20
2014,04,12,00,04,5.20
2014,04,12,00,05,5.20
2014,04,12,00,06,5.20
2014,04,12,00,07,5.20
2014,04,12,00,08,5.20
2014,04,12,00,09,5.10
2014,04,12,00,10,5.10
2014,04,12,00,11,5.10
2014,04,12,00,12,5.10
2014,04,12,00,13,5.10
2014,04,12,00,14,5.10
2014,04,12,00,15,5.10
2014,04,12,00,16,5.10
2014,04,12,00,17,5.00
2014,04,12,00,18,5.00
2014,04,12,00,19,5.00
2014,04,12,00,20,5.00
2014,04,12,00,21,5.00
2014,04,12,00,22,4.90
2014,04,12,00,23,4.90
2014,04,12,00,24,4.90
2014,04,12,00,25,4.90
2014,04,12,00,26,4.90
2014,04,12,00,27,4.90
2014,04,12,00,28,5.00
2014,04,12,00,29,5.00
2014,04,12,00,30,5.00
2014,04,12,00,31,5.00
2014,04,12,00,32,5.00
2014,04,12,00,33,5.00
2014,04,12,00,34,5.00
2014,04,12,00,35,5.00
2014,04,12,00,36,5.00
2014,04,12,00,37,5.00
2014,04,12,00,38,5.00
2014,04,12,00,39,5.00
2014,04,12,00,40,5.00
2014,04,12,00,41,5.00
2014,04,12,00,42,5.00
2014,04,12,00,43,5.00
2014,04,12,00,44,5.00
2014,04,12,00,45,5.00
2014,04,12,00,46,5.00
2014,04,12,00,47,5.00
2014,04,12,00,48,5.00
2014,04,12,00,49,5.00
2014,04,12,00,50,5.00
2014,04,12,00,51,5.00
2014,04,12,00,52,5.00
2014,04,12,00,53,5.00
2014,04,12,00,54,5.00
2014,04,12,00,55,5.00
2014,04,12,00,56,5.00
2014,04,12,00,57,5.00
2014,04,12,00,58,5.00
2014,04,12,00,59,5.00
2014,04,12,01,00,5.00
2014,04,12,01,01,5.00
2014,04,12,01,02,5.00
2014,04,12,01,03,5.00
2014,04,12,01,04,5.00
2014,04,12,01,05,5.00
2014,04,12,01,06,5.00
2014,04,12,01,07,5.00
2014,04,12,01,08,5.00
2014,04,12,01,09,4.90
2014,04,12,01,10,4.90
2014,04,12,01,11,4.90
2014,04,12,01,12,4.90
2014,04,12,01,13,4.90
2014,04,12,01,14,4.90
2014,04,12,01,15,4.90
2014,04,12,01,16,4.90
2014,04,12,01,17,4.90
2014,04,12,01,18,4.90
2014,04,12,01,19,4.90
2014,04,12,01,20,4.90
2014,04,12,01,21,4.90
2014,04,12,01,22,4.90
2014,04,12,01,23,4.90
2014,04,12,01,24,4.90
2014,04,12,01,25,5.00
2014,04,12,01,26,5.00
2014,04,12,01,27,4.90
2014,04,12,01,28,5.00
2014,04,12,01,29,4.90
2014,04,12,01,30,4.90
2014,04,12,01,31,4.90
2014,04,12,01,32,4.90
2014,04,12,01,33,5.00
2014,04,12,01,34,4.90
2014,04,12,01,35,5.00
2014,04,12,01,36,5.00
2014,04,12,01,37,5.00
2014,04,12,01,38,5.00
2014,04,12,01,39,5.00
2014,04,12,01,40,5.10
2014,04,12,01,41,5.10
2014,04,12,01,42,5.10
2014,04,12,01,43,5.10
2014,04,12,01,44,5.10
2014,04,12,01,45,5.10
2014,04,12,01,46,5.10
2014,04,12,01,47,5.10
2014,04,12,01,48,5.10
2014,04,12,01,49,5.10
2014,04,12,01,50,5.10
2014,04,12,01,51,5.20
2014,04,12,01,52,5.20
2014,04,12,01,53,5.20
2014,04,12,01,54,5.20
2014,04,12,01,55,5.20
2014,04,12,01,56,5.20
2014,04,12,01,57,5.20
2014,04,12,01,58,5.20
2014,04,12,01,59,5.20
2014,04,12,02,00,5.20
2014,04,12,02,01,5.20
2014,04,12,02,02,5.20
2014,04,12,02,03,5.30
2014,04,12,02,04,5.30
2014,04,12,02,05,5.30
2014,04,12,02,06,5.30
2014,04,12,02,07,5.30
2014,04,12,02,08,5.30
2014,04,12,02,09,5.30
2014,04,12,02,10,5.30
2014,04,12,02,11,5.30
2014,04,12,02,12,5.30
2014,04,12,02,13,5.30
2014,04,12,02,14,5.30
2014,04,12,02,15,5.30
2014,04,12,02,16,5.30
2014,04,12,02,17,5.30
2014,04,12,02,18,5.30
2014,04,12,02,19,5.30
2014,04,12,02,20,5.30
2014,04,12,02,21,5.30
2014,04,12,02,22,5.30
2014,04,12,02,23,5.30
2014,04,12,02,24,5.30
2014,04,12,02,25,5.30
2014,04,12,02,26,5.30
2014,04,12,02,27,5.30
2014,04,12,02,28,5.30
2014,04,12,02,29,5.30
2014,04,12,02,30,5.30
2014,04,12,02,31,5.30
2014,04,12,02,32,5.30
2014,04,12,02,33,5.30
2014,04,12,02,34,5.30
2014,04,12,02,35,5.30
2014,04,12,02,36,5.30
2014,04,12,02,37,5.30
2014,04,12,02,38,5.30
2014,04,12,02,39,5.30
2014,04,12,02,40,5.30
2014,04,12,02,41,5.30
2014,04,12,02,42,5.30
2014,04,12,02,43,5.30
2014,04,12,02,44,5.30
2014,04,12,02,45,5.30
2014,04,12,02,46,5.30
2014,04,12,02,47,5.30
2014,04,12,02,48,5.20
2014,04,12,02,49,5.20
2014,04,12,02,50,5.20
2014,04,12,02,51,5.20
2014,04,12,02,52,5.20
2014,04,12,02,53,5.20
2014,04,12,02,54,5.20
2014,04,12,02,55,5.20
2014,04,12,02,56,5.20
2014,04,12,02,57,5.20
2014,04,12,02,58,5.20
2014,04,12,02,59,5.20
2014,04,12,03,00,5.20
2014,04,12,03,01,5.20
2014,04,12,03,02,5.20
2014,04,12,03,03,5.20
2014,04,12,03,04,5.20
2014,04,12,03,05,5.20
2014,04,12,03,06,5.20
2014,04,12,03,07,5.20
2014,04,12,03,08,5.20
2014,04,12,03,09,5.20
2014,04,12,03,10,5.10
2014,04,12,03,11,5.10
2014,04,12,03,12,5.10
2014,04,12,03,13,5.10
2014,04,12,03,14,5.10
2014,04,12,03,15,5.10
2014,04,12,03,16,5.10
2014,04,12,03,17,5.10
2014,04,12,03,18,5.10
2014,04,12,03,19,5.10
2014,04,12,03,20,5.10
2014,04,12,03,21,5.10
2014,04,12,03,22,5.10
2014,04,12,03,23,5.10
2014,04,12,03,24,5.10
2014,04,12,03,25,5.10
2014,04,12,03,26,5.10
2014,04,12,03,27,5.10
2014,04,12,03,28,5.10
2014,04,12,03,29,5.10
2014,04,12,03,30,5.10
2014,04,12,03,31,5.10
2014,04,12,03,32,5.10
2014,04,12,03,33,5.10
2014,04,12,03,34,5.10
2014,04,12,03,35,5.10
2014,04,12,03,36,5.10
2014,04,12,03,37,5.10
2014,04,12,03,38,5.00
2014,04,12,03,39,5.00
2014,04,12,03,40,5.00
2014,04,12,03,41,5.00
2014,04,12,03,42,5.00
2014,04,12,03,43,5.00
2014,04,12,03,44,5.00
2014,04,12,03,45,4.90
2014,04,12,03,46,4.90
2014,04,12,03,47,4.90
2014,04,12,03,48,4.90
2014,04,12,03,49,4.90
2014,04,12,03,50,4.90
2014,04,12,03,51,4.90
2014,04,12,03,52,4.90
2014,04,12,03,53,4.90
2014,04,12,03,54,4.90
2014,04,12,03,55,4.90
2014,04,12,03,56,4.90
2014,04,12,03,57,4.90
2014,04,12,03,58,4.90
2014,04,12,03,59,4.90
2014,04,12,04,00,4.90
2014,04,12,04,01,4.90
2014,04,12,04,02,4.90
2014,04,12,04,03,4.90
2014,04,12,04,04,4.90
2014,04,12,04,05,4.80
2014,04,12,04,06,4.80
2014,04,12,04,07,4.80
2014,04,12,04,08,4.80
2014,04,12,04,09,4.80
2014,04,12,04,10,4.80
2014,04,12,04,11,4.80
2014,04,12,04,12,4.80
2014,04,12,04,13,4.80
2014,04,12,04,14,4.80
2014,04,12,04,15,4.80
2014,04,12,04,16,4.80
2014,04,12,04,17,4.70
2014,04,12,04,18,4.70
2014,04,12,04,19,4.70
2014,04,12,04,20,4.70
2014,04,12,04,21,4.70
2014,04,12,04,22,4.70
2014,04,12,04,23,4.70
2014,04,12,04,24,4.70
2014,04,12,04,25,4.70
2014,04,12,04,26,4.70
2014,04,12,04,27,4.70
2014,04,12,04,28,4.70
2014,04,12,04,29,4.70
2014,04,12,04,30,4.70
2014,04,12,04,31,4.70
2014,04,12,04,32,4.70
2014,04,12,04,33,4.70
2014,04,12,04,34,4.70
2014,04,12,04,35,4.60
2014,04,12,04,36,4.60
2014,04,12,04,37,4.60
2014,04,12,04,38,4.60
2014,04,12,04,39,4.60
2014,04,12,04,40,4.60
2014,04,12,04,41,4.60
2014,04,12,04,42,4.60
2014,04,12,04,43,4.70
2014,04,12,04,44,4.70
2014,04,12,04,45,4.70
2014,04,12,04,46,4.70
2014,04,12,04,47,4.70
2014,04,12,04,48,4.70
2014,04,12,04,49,4.70
2014,04,12,04,50,4.70
2014,04,12,04,51,4.70
2014,04,12,04,52,4.70
2014,04,12,04,53,4.70
2014,04,12,04,54,4.70
2014,04,12,04,55,4.60
2014,04,12,04,56,4.60
2014,04,12,04,57,4.60
2014,04,12,04,58,4.60
2014,04,12,04,59,4.60
2014,04,12,05,00,4.60
2014,04,12,05,01,4.60
2014,04,12,05,02,4.60
2014,04,12,05,03,4.60
2014,04,12,05,04,4.50
2014,04,12,05,05,4.50
2014,04,12,05,06,4.50
2014,04,12,05,07,4.50
2014,04,12,05,08,4.50
2014,04,12,05,09,4.50
2014,04,12,05,10,4.50
2014,04,12,05,11,4.50
2014,04,12,05,12,4.40
2014,04,12,05,13,4.40
2014,04,12,05,14,4.40
2014,04,12,05,15,4.40
2014,04,12,05,16,4.40
2014,04,12,05,17,4.40
2014,04,12,05,18,4.40
2014,04,12,05,19,4.40
2014,04,12,05,20,4.30
2014,04,12,05,21,4.30
2014,04,12,05,22,4.30
2014,04,12,05,23,4.30
2014,04,12,05,24,4.30
2014,04,12,05,25,4.30
2014,04,12,05,26,4.30
2014,04,12,05,27,4.30
2014,04,12,05,28,4.30
2014,04,12,05,29,4.30
2014,04,12,05,30,4.20
2014,04,12,05,31,4.20
2014,04,12,05,32,4.20
2014,04,12,05,33,4.20
2014,04,12,05,34,4.20
2014,04,12,05,35,4.20
2014,04,12,05,36,4.20
2014,04,12,05,37,4.10
2014,04,12,05,38,4.10
2014,04,12,05,39,4.10
2014,04,12,05,40,4.10
2014,04,12,05,41,4.10
2014,04,12,05,42,4.10
2014,04,12,05,43,4.10
2014,04,12,05,44,4.10
2014,04,12,05,45,4.00
2014,04,12,05,46,4.00
2014,04,12,05,47,4.00
2014,04,12,05,48,4.00
2014,04,12,05,49,3.90
2014,04,12,05,50,3.90
2014,04,12,05,51,3.90
2014,04,12,05,52,3.90
2014,04,12,05,53,3.90
2014,04,12,05,54,3.80
2014,04,12,05,55,3.80
2014,04,12,05,56,3.80
2014,04,12,05,57,3.80
2014,04,12,05,58,3.80
2014,04,12,05,59,3.80
2014,04,12,06,00,3.80
2014,04,12,06,01,3.80
2014,04,12,06,02,3.80
2014,04,12,06,03,3.80
2014,04,12,06,04,3.80
2014,04,12,06,05,3.70
2014,04,12,06,06,3.70
2014,04,12,06,07,3.70
2014,04,12,06,08,3.70
2014,04,12,06,09,3.70
2014,04,12,06,10,3.70
2014,04,12,06,11,3.70
2014,04,12,06,12,3.70
2014,04,12,06,13,3.70
2014,04,12,06,14,3.60
2014,04,12,06,15,3.60
2014,04,12,06,16,3.60
2014,04,12,06,17,3.60
2014,04,12,06,18,3.60
2014,04,12,06,19,3.60
2014,04,12,06,20,3.60
2014,04,12,06,21,3.60
2014,04,12,06,22,3.60
2014,04,12,06,23,3.60
2014,04,12,06,24,3.60
2014,04,12,06,25,3.60
2014,04,12,06,26,3.60
2014,04,12,06,27,3.60
2014,04,12,06,28,3.60
2014,04,12,06,29,3.50
2014,04,12,06,30,3.50
2014,04,12,06,31,3.50
2014,04,12,06,32,3.50
2014,04,12,06,33,3.50
2014,04,12,06,34,3.40
2014,04,12,06,35,3.40
2014,04,12,06,36,3.40
2014,04,12,06,37,3.40
2014,04,12,06,38,3.40
2014,04,12,06,39,3.40
2014,04,12,06,40,3.40
2014,04,12,06,41,3.30
2014,04,12,06,42,3.30
2014,04,12,06,43,3.30
2014,04,12,06,44,3.30
2014,04,12,06,45,3.30
2014,04,12,06,46,3.30
2014,04,12,06,47,3.30
2014,04,12,06,48,3.30
2014,04,12,06,49,3.30
2014,04,12,06,50,3.30
2014,04,12,06,51,3.30
2014,04,12,06,52,3.30
2014,04,12,06,53,3.30
2014,04,12,06,54,3.20
2014,04,12,06,55,3.20
2014,04,12,06,56,3.20
2014,04,12,06,57,3.20
2014,04,12,06,58,3.20
2014,04,12,06,59,3.20
2014,04,12,07,00,3.20
2014,04,12,07,01,3.20
2014,04,12,07,02,3.10
2014,04,12,07,03,3.10
2014,04,12,07,04,3.10
2014,04,12,07,05,3.10
2014,04,12,07,06,3.10
2014,04,12,07,07,3.10
2014,04,12,07,08,3.00
2014,04,12,07,09,3.00
2014,04,12,07,10,3.00
2014,04,12,07,11,3.00
2014,04,12,07,12,3.00
2014,04,12,07,13,3.00
2014,04,12,07,14,3.00
2014,04,12,07,15,3.10
2014,04,12,07,16,3.10
2014,04,12,07,17,3.10
2014,04,12,07,18,3.10
2014,04,12,07,19,3.20
2014,04,12,07,20,3.20
2014,04,12,07,21,3.20
2014,04,12,07,22,3.20
2014,04,12,07,23,3.20
2014,04,12,07,24,3.30
2014,04,12,07,25,3.30
2014,04,12,07,26,3.30
2014,04,12,07,27,3.30
2014,04,12,07,28,3.30
2014,04,12,07,29,3.30
2014,04,12,07,30,3.30
2014,04,12,07,31,3.30
2014,04,12,07,32,3.30
2014,04,12,07,33,3.30
2014,04,12,07,34,3.40
2014,04,12,07,35,3.40
2014,04,12,07,36,3.40
2014,04,12,07,37,3.40
2014,04,12,07,38,3.50
2014,04,12,07,39,3.50
2014,04,12,07,40,3.60
2014,04,12,07,41,3.60
2014,04,12,07,42,3.70
2014,04,12,07,43,3.70
2014,04,12,07,44,3.70
2014,04,12,07,45,3.80
2014,04,12,07,46,3.80
2014,04,12,07,47,3.80
2014,04,12,07,48,3.80
2014,04,12,07,49,3.80
2014,04,12,07,50,3.80
2014,04,12,07,51,3.90
2014,04,12,07,52,3.90
2014,04,12,07,53,3.90
2014,04,12,07,54,3.90
2014,04,12,07,55,4.00
2014,04,12,07,56,4.00
2014,04,12,07,57,4.10
2014,04,12,07,58,4.10
2014,04,12,07,59,4.20
2014,04,12,08,00,4.20
2014,04,12,08,01,4.30
2014,04,12,08,02,4.30
2014,04,12,08,03,4.40
2014,04,12,08,04,4.40
2014,04,12,08,05,4.40
2014,04,12,08,06,4.50
2014,04,12,08,07,4.60
2014,04,12,08,08,4.70
2014,04,12,08,09,4.80
2014,04,12,08,10,4.90
2014,04,12,08,11,5.00
2014,04,12,08,12,5.00
2014,04,12,08,13,5.10
2014,04,12,08,14,5.20
2014,04,12,08,15,5.20
2014,04,12,08,16,5.30
2014,04,12,08,17,5.40
2014,04,12,08,18,5.50
2014,04,12,08,19,5.70
2014,04,12,08,20,5.80
2014,04,12,08,21,5.80
2014,04,12,08,22,5.90
2014,04,12,08,23,5.90
2014,04,12,08,24,6.00
2014,04,12,08,25,6.00
2014,04,12,08,26,6.00
2014,04,12,08,27,6.10
2014,04,12,08,28,6.10
2014,04,12,08,29,6.20
2014,04,12,08,30,6.20
2014,04,12,08,31,6.30
2014,04,12,08,32,6.40
2014,04,12,08,33,6.50
2014,04,12,08,34,6.50
2014,04,12,08,35,6.60
2014,04,12,08,36,6.70
2014,04,12,08,37,6.80
2014,04,12,08,38,7.00
2014,04,12,08,39,7.10
2014,04,12,08,40,7.20
2014,04,12,08,41,7.30
2014,04,12,08,42,7.40
2014,04,12,08,43,7.50
2014,04,12,08,44,7.60
2014,04,12,08,45,7.60
2014,04,12,08,46,7.70
2014,04,12,08,47,7.80
2014,04,12,08,48,7.80
2014,04,12,08,49,7.80
2014,04,12,08,50,7.90
2014,04,12,08,51,7.90
2014,04,12,08,52,8.00
2014,04,12,08,53,8.10
2014,04,12,08,54,8.20
2014,04,12,08,55,8.20
2014,04,12,08,56,8.30
2014,04,12,08,57,8.40
2014,04,12,08,58,8.40
2014,04,12,08,59,8.50
2014,04,12,09,00,8.50
2014,04,12,09,01,8.60
2014,04,12,09,02,8.60
2014,04,12,09,03,8.70
2014,04,12,09,04,8.70
2014,04,12,09,05,8.80
2014,04,12,09,06,8.80
2014,04,12,09,07,8.90
2014,04,12,09,08,8.90
2014,04,12,09,09,9.00
2014,04,12,09,10,9.10
2014,04,12,09,11,9.10
2014,04,12,09,12,9.20
2014,04,12,09,13,9.30
2014,04,12,09,14,9.30
2014,04,12,09,15,9.40
2014,04,12,09,16,9.40
2014,04,12,09,17,9.40
2014,04,12,09,18,9.50
2014,04,12,09,19,9.50
2014,04,12,09,20,9.50
2014,04,12,09,21,9.50
2014,04,12,09,22,9.50
2014,04,12,09,23,9.60
2014,04,12,09,24,9.60
2014,04,12,09,25,9.60
2014,04,12,09,26,9.60
2014,04,12,09,27,9.60
2014,04,12,09,28,9.60
2014,04,12,09,29,9.60
2014,04,12,09,30,9.70
2014,04,12,09,31,9.70
2014,04,12,09,32,9.70
2014,04,12,09,33,9.80
2014,04,12,09,34,9.80
2014,04,12,09,35,9.80
2014,04,12,09,36,9.90
2014,04,12,09,37,9.90
2014,04,12,09,38,10.00
2014,04,12,09,39,10.00
2014,04,12,09,40,10.10
2014,04,12,09,41,10.10
2014,04,12,09,42,10.10
2014,04,12,09,43,10.20
2014,04,12,09,44,10.20
2014,04,12,09,45,10.30
2014,04,12,09,46,10.30
2014,04,12,09,47,10.30
2014,04,12,09,48,10.30
2014,04,12,09,49,10.30
2014,04,12,09,50,10.40
2014,04,12,09,51,10.40
2014,04,12,09,52,10.40
2014,04,12,09,53,10.40
2014,04,12,09,54,10.40
2014,04,12,09,55,10.40
2014,04,12,09,56,10.50
2014,04,12,09,57,10.50
2014,04,12,09,58,10.60
2014,04,12,09,59,10.60
2014,04,12,10,00,10.60
2014,04,12,10,01,10.60
2014,04,12,10,02,10.60
2014,04,12,10,03,10.60
2014,04,12,10,04,10.70
2014,04,12,10,05,10.70
2014,04,12,10,06,10.70
2014,04,12,10,07,10.70
2014,04,12,10,08,10.70
2014,04,12,10,09,10.70
2014,04,12,10,10,10.70
2014,04,12,10,11,10.70
2014,04,12,10,12,10.80
2014,04,12,10,13,10.80
2014,04,12,10,14,10.80
2014,04,12,10,15,10.80
2014,04,12,10,16,10.80
2014,04,12,10,17,10.80
2014,04,12,10,18,10.80
2014,04,12,10,19,10.80
2014,04,12,10,20,10.90
2014,04,12,10,21,10.90
2014,04,12,10,22,10.90
2014,04,12,10,23,10.90
2014,04,12,10,24,10.90
2014,04,12,10,25,11.00
2014,04,12,10,26,11.00
2014,04,12,10,27,11.00
2014,04,12,10,28,11.00
2014,04,12,10,29,11.00
2014,04,12,10,30,11.00
2014,04,12,10,31,11.00
2014,04,12,10,32,11.00
2014,04,12,10,33,10.90
2014,04,12,10,34,10.90
2014,04,12,10,35,10.90
2014,04,12,10,36,10.90
2014,04,12,10,37,10.90
2014,04,12,10,38,10.90
2014,04,12,10,39,11.00
2014,04,12,10,40,11.00
2014,04,12,10,41,10.90
2014,04,12,10,42,10.90
2014,04,12,10,43,10.90
2014,04,12,10,44,10.90
2014,04,12,10,45,10.90
2014,04,12,10,46,10.90
2014,04,12,10,47,10.90
2014,04,12,10,48,10.90
2014,04,12,10,49,10.90
2014,04,12,10,50,10.90
2014,04,12,10,51,10.90
2014,04,12,10,52,10.90
2014,04,12,10,53,10.90
2014,04,12,10,54,10.90
2014,04,12,10,55,10.90
2014,04,12,10,56,10.90
2014,04,12,10,57,10.90
2014,04,12,10,58,10.90
2014,04,12,10,59,10.90
2014,04,12,11,00,11.00
2014,04,12,11,01,11.00
2014,04,12,11,02,11.00
2014,04,12,11,03,11.00
2014,04,12,11,04,10.90
2014,04,12,11,05,10.90
2014,04,12,11,06,11.00
2014,04,12,11,07,11.00
2014,04,12,11,08,11.00
2014,04,12,11,09,11.10
2014,04,12,11,10,11.10
2014,04,12,11,11,11.10
2014,04,12,11,12,11.10
2014,04,12,11,13,11.20
2014,04,12,11,14,11.20
2014,04,12,11,15,11.20
2014,04,12,11,16,11.20
2014,04,12,11,17,11.30
2014,04,12,11,18,11.30
2014,04,12,11,19,11.30
2014,04,12,11,20,11.30
2014,04,12,11,21,11.30
2014,04,12,11,22,11.30
2014,04,12,11,23,11.30
2014,04,12,11,24,11.30
2014,04,12,11,25,11.30
2014,04,12,11,26,11.30
2014,04,12,11,27,11.30
2014,04,12,11,28,11.30
2014,04,12,11,29,11.30
2014,04,12,11,30,11.30
2014,04,12,11,31,11.40
2014,04,12,11,32,11.40
2014,04,12,11,33,11.40
2014,04,12,11,34,11.50
2014,04,12,11,35,11.50
2014,04,12,11,36,11.50
2014,04,12,11,37,11.50
2014,04,12,11,38,11.50
2014,04,12,11,39,11.40
2014,04,12,11,40,11.40
2014,04,12,11,41,11.40
2014,04,12,11,42,11.40
2014,04,12,11,43,11.40
2014,04,12,11,44,11.40
2014,04,12,11,45,11.50
2014,04,12,11,46,11.50
2014,04,12,11,47,11.50
2014,04,12,11,48,11.60
2014,04,12,11,49,11.60
2014,04,12,11,50,11.60
2014,04,12,11,51,11.70
2014,04,12,11,52,11.70
2014,04,12,11,53,11.70
2014,04,12,11,54,11.70
2014,04,12,11,55,11.70
2014,04,12,11,56,11.70
2014,04,12,11,57,11.60
2014,04,12,11,58,11.60
2014,04,12,11,59,11.60
2014,04,12,12,00,11.60
2014,04,12,12,01,11.70
2014,04,12,12,02,11.70
2014,04,12,12,03,11.70
2014,04,12,12,04,11.80
2014,04,12,12,05,11.80
2014,04,12,12,06,11.90
2014,04,12,12,07,11.90
2014,04,12,12,08,12.00
2014,04,12,12,09,12.00
2014,04,12,12,10,12.10
2014,04,12,12,11,12.20
2014,04,12,12,12,12.20
2014,04,12,12,13,12.30
2014,04,12,12,14,12.30
2014,04,12,12,15,12.30
2014,04,12,12,16,12.30
2014,04,12,12,17,12.40
2014,04,12,12,18,12.40
2014,04,12,12,19,12.50
2014,04,12,12,20,12.50
2014,04,12,12,21,12.50
2014,04,12,12,22,12.50
2014,04,12,12,23,12.50
2014,04,12,12,24,12.60
2014,04,12,12,25,12.60
2014,04,12,12,26,12.60
2014,04,12,12,27,12.70
2014,04,12,12,28,12.80
2014,04,12,12,29,12.80
2014,04,12,12,30,12.90
2014,04,12,12,31,12.90
2014,04,12,12,32,13.00
2014,04,12,12,33,13.10
2014,04,12,12,34,13.20
2014,04,12,12,35,13.30
2014,04,12,12,36,13.40
2014,04,12,12,37,13.40
2014,04,12,12,38,13.50
2014,04,12,12,39,13.60
2014,04,12,12,40,13.80
2014,04,12,12,41,13.80
2014,04,12,12,42,13.90
2014,04,12,12,43,13.90
2014,04,12,12,44,13.90
2014,04,12,12,45,13.90
2014,04,12,12,46,13.90
2014,04,12,12,47,13.90
2014,04,12,12,48,13.90
2014,04,12,12,49,13.90
2014,04,12,12,50,13.90
2014,04,12,12,51,14.00
2014,04,12,12,52,14.00
2014,04,12,12,53,14.00
2014,04,12,12,54,14.00
2014,04,12,12,55,13.90
2014,04,12,12,56,13.90
2014,04,12,12,57,14.00
2014,04,12,12,58,14.00
2014,04,12,12,59,14.00
2014,04,12,13,00,14.10
2014,04,12,13,01,14.10
2014,04,12,13,02,14.10
2014,04,12,13,03,14.10
2014,04,12,13,04,14.10
2014,04,12,13,05,14.10
2014,04,12,13,06,14.20
2014,04,12,13,07,14.20
2014,04,12,13,08,14.20
2014,04,12,13,09,14.20
2014,04,12,13,10,14.20
2014,04,12,13,11,14.30
2014,04,12,13,12,14.40
2014,04,12,13,13,14.40
2014,04,12,13,14,14.50
2014,04,12,13,15,14.40
2014,04,12,13,16,14.40
2014,04,12,13,17,14.30
2014,04,12,13,18,14.20
2014,04,12,13,19,14.10
2014,04,12,13,20,14.10
2014,04,12,13,21,14.00
2014,04,12,13,22,13.90
2014,04,12,13,23,14.00
2014,04,12,13,24,14.00
2014,04,12,13,25,13.90
2014,04,12,13,26,13.90
2014,04,12,13,27,13.90
2014,04,12,13,28,14.00
2014,04,12,13,29,14.10
2014,04,12,13,30,14.10
2014,04,12,13,31,14.20
2014,04,12,13,32,14.30
2014,04,12,13,33,14.40
2014,04,12,13,34,14.40
2014,04,12,13,35,14.50
2014,04,12,13,36,14.60
2014,04,12,13,37,14.70
2014,04,12,13,38,14.70
2014,04,12,13,39,14.70
2014,04,12,13,40,14.70
2014,04,12,13,41,14.70
2014,04,12,13,42,14.70
2014,04,12,13,43,14.60
2014,04,12,13,44,14.50
2014,04,12,13,45,14.50
2014,04,12,13,46,14.40
2014,04,12,13,47,14.40
2014,04,12,13,48,14.40
2014,04,12,13,49,14.40
2014,04,12,13,50,14.40
2014,04,12,13,51,14.40
2014,04,12,13,52,14.50
2014,04,12,13,53,14.50
2014,04,12,13,54,14.50
2014,04,12,13,55,14.60
2014,04,12,13,56,14.60
2014,04,12,13,57,14.70
2014,04,12,13,58,14.70
2014,04,12,13,59,14.80
2014,04,12,14,00,14.80
2014,04,12,14,01,14.80
2014,04,12,14,02,14.80
2014,04,12,14,03,14.80
2014,04,12,14,04,14.80
2014,04,12,14,05,14.80
2014,04,12,14,06,14.70
2014,04,12,14,07,14.70
2014,04,12,14,08,14.60
2014,04,12,14,09,14.60
2014,04,12,14,10,14.50
2014,04,12,14,11,14.50
2014,04,12,14,12,14.50
2014,04,12,14,13,14.50
2014,04,12,14,14,14.50
2014,04,12,14,15,14.50
2014,04,12,14,16,14.60
2014,04,12,14,17,14.60
2014,04,12,14,18,14.60
2014,04,12,14,19,14.70
2014,04,12,14,20,14.70
2014,04,12,14,21,14.80
2014,04,12,14,22,14.90
2014,04,12,14,23,15.00
2014,04,12,14,24,15.00
2014,04,12,14,25,15.00
2014,04,12,14,26,15.10
2014,04,12,14,27,15.20
2014,04,12,14,28,15.20
2014,04,12,14,29,15.30
2014,04,12,14,30,15.30
2014,04,12,14,31,15.30
2014,04,12,14,32,15.30
2014,04,12,14,33,15.30
2014,04,12,14,34,15.20
2014,04,12,14,35,15.20
2014,04,12,14,36,15.30
2014,04,12,14,37,15.30
2014,04,12,14,38,15.20
2014,04,12,14,39,15.20
2014,04,12,14,40,15.20
2014,04,12,14,41,15.20
2014,04,12,14,42,15.20
2014,04,12,14,43,15.20
2014,04,12,14,44,15.20
2014,04,12,14,45,15.10
2014,04,12,14,46,15.10
2014,04,12,14,47,15.00
2014,04,12,14,48,15.00
2014,04,12,14,49,15.00
2014,04,12,14,50,15.00
2014,04,12,14,51,15.00
2014,04,12,14,52,15.00
2014,04,12,14,53,15.00
2014,04,12,14,54,15.00
2014,04,12,14,55,15.00
2014,04,12,14,56,15.00
2014,04,12,14,57,15.00
2014,04,12,14,58,15.00
2014,04,12,14,59,15.00
2014,04,12,15,00,15.00
2014,04,12,15,01,15.00
2014,04,12,15,02,15.00
2014,04,12,15,03,14.90
2014,04,12,15,04,14.90
2014,04,12,15,05,14.80
2014,04,12,15,06,14.80
2014,04,12,15,07,14.70
2014,04,12,15,08,14.70
2014,04,12,15,09,14.70
2014,04,12,15,10,14.60
2014,04,12,15,11,14.60
2014,04,12,15,12,14.60
2014,04,12,15,13,14.60
2014,04,12,15,14,14.60
2014,04,12,15,15,14.60
2014,04,12,15,16,14.70
2014,04,12,15,17,14.70
2014,04,12,15,18,14.70
2014,04,12,15,19,14.70
2014,04,12,15,20,14.80
2014,04,12,15,21,14.80
2014,04,12,15,22,14.80
2014,04,12,15,23,14.80
2014,04,12,15,24,14.80
2014,04,12,15,25,14.80
2014,04,12,15,26,14.80
2014,04,12,15,27,14.90
2014,04,12,15,28,14.90
2014,04,12,15,29,14.90
2014,04,12,15,30,14.80
2014,04,12,15,31,14.80
2014,04,12,15,32,14.80
2014,04,12,15,33,14.80
2014,04,12,15,34,14.90
2014,04,12,15,35,14.90
2014,04,12,15,36,14.90
2014,04,12,15,37,14.90
2014,04,12,15,38,14.90
2014,04,12,15,39,14.90
2014,04,12,15,40,14.90
2014,04,12,15,41,14.90
2014,04,12,15,42,14.90
2014,04,12,15,43,14.90
2014,04,12,15,44,14.90
2014,04,12,15,45,14.90
2014,04,12,15,46,14.90
2014,04,12,15,47,15.00
2014,04,12,15,48,15.00
2014,04,12,15,49,15.00
2014,04,12,15,50,15.00
2014,04,12,15,51,15.00
2014,04,12,15,52,15.00
2014,04,12,15,53,15.00
2014,04,12,15,54,15.00
2014,04,12,15,55,15.00
2014,04,12,15,56,15.00
2014,04,12,15,57,15.10
2014,04,12,15,58,15.10
2014,04,12,15,59,15.10
2014,04,12,16,00,15.10
2014,04,12,16,01,15.20
2014,04,12,16,02,15.20
2014,04,12,16,03,15.20
2014,04,12,16,04,15.20
2014,04,12,16,05,15.20
2014,04,12,16,06,15.20
2014,04,12,16,07,15.10
2014,04,12,16,08,15.20
2014,04,12,16,09,15.10
2014,04,12,16,10,15.10
2014,04,12,16,11,15.10
2014,04,12,16,12,15.10
2014,04,12,16,13,15.10
2014,04,12,16,14,15.20
2014,04,12,16,15,15.20
2014,04,12,16,16,15.20
2014,04,12,16,17,15.10
2014,04,12,16,18,15.20
2014,04,12,16,19,15.20
2014,04,12,16,20,15.20
2014,04,12,16,21,15.20
2014,04,12,16,22,15.20
2014,04,12,16,23,15.20
2014,04,12,16,24,15.20
2014,04,12,16,25,15.20
2014,04,12,16,26,15.20
2014,04,12,16,27,15.20
2014,04,12,16,28,15.30
2014,04,12,16,29,15.30
2014,04,12,16,30,15.30
2014,04,12,16,31,15.30
2014,04,12,16,32,15.30
2014,04,12,16,33,15.30
2014,04,12,16,34,15.30
2014,04,12,16,35,15.30
2014,04,12,16,36,15.30
2014,04,12,16,37,15.40
2014,04,12,16,38,15.40
2014,04,12,16,39,15.30
2014,04,12,16,40,15.30
2014,04,12,16,41,15.30
2014,04,12,16,42,15.30
2014,04,12,16,43,15.30
2014,04,12,16,44,15.40
2014,04,12,16,45,15.40
2014,04,12,16,46,15.40
2014,04,12,16,47,15.40
2014,04,12,16,48,15.40
2014,04,12,16,49,15.40
2014,04,12,16,50,15.40
2014,04,12,16,51,15.40
2014,04,12,16,52,15.40
2014,04,12,16,53,15.40
2014,04,12,16,54,15.40
2014,04,12,16,55,15.40
2014,04,12,16,56,15.40
2014,04,12,16,57,15.40
2014,04,12,16,58,15.40
2014,04,12,16,59,15.40
2014,04,12,17,00,15.30
2014,04,12,17,01,15.30
2014,04,12,17,02,15.30
2014,04,12,17,03,15.30
2014,04,12,17,04,15.30
2014,04,12,17,05,15.30
2014,04,12,17,06,15.30
2014,04,12,17,07,15.30
2014,04,12,17,08,15.30
2014,04,12,17,09,15.30
2014,04,12,17,10,15.30
2014,04,12,17,11,15.30
2014,04,12,17,12,15.30
2014,04,12,17,13,15.30
2014,04,12,17,14,15.30
2014,04,12,17,15,15.30
2014,04,12,17,16,15.30
2014,04,12,17,17,15.30
2014,04,12,17,18,15.40
2014,04,12,17,19,15.40
2014,04,12,17,20,15.40
2014,04,12,17,21,15.40
2014,04,12,17,22,15.40
2014,04,12,17,23,15.40
2014,04,12,17,24,15.40
2014,04,12,17,25,15.40
2014,04,12,17,26,15.40
2014,04,12,17,27,15.40
2014,04,12,17,28,15.40
2014,04,12,17,29,15.40
2014,04,12,17,30,15.40
2014,04,12,17,31,15.40
2014,04,12,17,32,15.40
2014,04,12,17,33,15.40
2014,04,12,17,34,15.40
2014,04,12,17,35,15.30
2014,04,12,17,36,15.30
2014,04,12,17,37,15.30
2014,04,12,17,38,15.30
2014,04,12,17,39,15.30
2014,04,12,17,40,15.30
2014,04,12,17,41,15.30
2014,04,12,17,42,15.30
2014,04,12,17,43,15.30
2014,04,12,17,44,15.30